Showing default

PRAETORIAN SDA_604, 65567

Orbit data source: Space-Track

PRAETORIAN SDA_604, 65567 is a payload satellite owned by SDA (US) in LEO that was launched on Wed, 10 Sep 2025 UTC via an FALCON 9 launch vehicle from the Air Force Western Test Range (AFWTR). Payload-class satellites include a variety of spacecraft equipped with specific instruments for various scientific and technological missions. These include communications satellites like Starlink; space stations such as the ISS; scientific satellites like the Hubble; Earth observation satellites from companies like Planet Labs, Umbra, and HawkEye 360; GPS; miniature CubeSats for education and research; and military/defense satellites.

Loading next visibility...
Identifier
65567, 2025-203C
Orbit
LEO
Country
Flag of USUS
Related business
Manufacturer
York Space Sys
Mission
Operational Defense Communications
Bus & Motor
S-CLASS, Unknown motor
Mass
~300 kg wet, ~300 kg dry
Launch date (UTC)
2025-09-10 (9 months ago)
Launch vehicle
FALCON 9
Launch site
Air Force Western Test Range (AFWTR)
Object type
Payload
Rocket body
Debris
Shape & HBR
Box + 4 Pan, 14.5 m
Radar Cross Section
1.244 m², Large (>1 m²)

Expand to show TLE details & history
Last TLE update: 21 hours ago

TLE from 21 hours ago
0 PRAETORIAN SDA_604
1 65567U 25203C   26170.96403972  .00000046  00000-0  31258-4 0  9990
2 65567  81.3052   8.5312 0005419 183.6347 176.4770 13.83047734 39060
Epoch: 2026-06-19T23:08Z
TLE epoch observation values (Epoch: 2026-06-19T23:08:13.031Z)
Latitude
-0.0001°
Longitude
113.29142°
Altitude
959.927 km
Speed
7.37 km/s
True Right ascension
00h 34m 07s
True Declination
0° 00' 00"
Sunlit
Object was in daylight at epoch
Visualization orbit readout
Latitude
Unknown
Longitude
Unknown
Altitude
Unknown
Speed
Unknown
Apparent Right ascension
Unknown
Apparent Declination
Unknown
Sunlit
N/A
Visualization observer readout
Local Sidereal Time
07:13:12
Azimuth
Unknown
Elevation
Unknown
Doppler factor
Unknown
Orbital elements
Apogee altitude
954.275 km
Perigee altitude
946.333 km
Semi-major axis
7,328.441 km
Eccentricity
0.00054
Inclination
81.3052°
RAAN
8.5312°
Arg. of periapsis
183.6347°
True anomaly
176.48081°
Mean anomaly
176.477°
Eccentric anomaly
176.47891°
Mean motion
3.4596 °/min
Orbital period
104.06 mins
BSTAR
0.000031258
Loading maneuver chart data...
Computing Atmospheric mass density...
Loading historical data...
Loading historical data...
Loading historical data...
Loading historical data...
Loading historical data...
Loading historical data...
Loading historical data...

Documentation

Showing up to 5 results
|